Location: Brachstadt
(48.6975°N, 10.6755°E)
Time: 05:15:57
(UTC+00:00)

Lacrosse 5 rocket - Pass Details

Date: 18 September 2020
Orbit: 460 x 636 km, 57.0° (Epoch: 29 October)

Event Time Altitude Azimuth Distance (km) Brightness Sun altitude
Rises 21:26:57 0° 302° (WNW) 2,849 5.8 -35.0°
Reaches altitude 10° 21:29:20 10° 310° (NW) 1,969 4.8 -35.3°
Enters shadow 21:30:46 19° 320° (NW) 1,480 4.1 -35.4°
